Regional Weather Roundup
Issued by NWS

Home | Current Version | Previous Version | Graphics & Text | Print | Product List | Glossary On
Versions: 1 2 3 4 5 6 7 8 9 10 11 12 13 14 15 16 17 18 19 20 21 22 23 24 25 26 27 28
000
ASUS45 KPSR 221610
RWRAZ

ARIZONA HOURLY REGIONAL WEATHER ROUNDUP
NATIONAL WEATHER SERVICE PHOENIX AZ
900 AM MST SAT APR 22 2017

NOTE: FAIR INDICATES FEW OR NO CLOUDS BELOW 12,000 FEET WITH NO
SIGNIFICANT WEATHER AND/OR OBSTRUCTIONS TO VISIBILITY.

AZZ001>003-036-221700-
NORTHWEST ARIZONA

CITY           SKY/WX    TMP DP  RH WIND       PRES   REMARKS
BULLHEAD CITY  SUNNY     73  21  14 N26G38    29.96S
KINGMAN        SUNNY     66  24  20 N13       30.07S
$$

AZZ004>008-015-016-018-221700-
NORTH CENTRAL ARIZONA

CITY           SKY/WX    TMP DP  RH WIND       PRES   REMARKS
GRAND CANYON   SUNNY     54  22  28 NE14      30.21R
WILLIAMS       SUNNY     57  21  24 E9        30.17S
PRESCOTT       SUNNY     60  22  23 N5        30.10S
FLAGSTAFF      SUNNY     53  16  23 NE13      30.20S
PAYSON         SUNNY     66  19  16 VRB5      30.12R
PAGE           SUNNY     57  21  24 E3        30.20R
$$

AZZ009>014-017-221700-
NORTHEAST ARIZONA

CITY           SKY/WX    TMP DP  RH WIND       PRES   REMARKS
WINSLOW        SUNNY     57  18  21 VRB3      30.18S
SAINT JOHNS    SUNNY     56  15  20 CALM      30.16S
WINDOW ROCK    SUNNY     52  16  24 VRB5      30.21F
SHOW LOW       SUNNY     52  18  25 NE3       30.19S
$$

AZZ540-542>544-546-548-221700-
GREATER PHOENIX AREA

CITY           SKY/WX    TMP DP  RH WIND       PRES   REMARKS
PHOENIX        SUNNY     78  25  14 E8        29.88S
BUCKEYE        SUNNY     73  32  21 S5        29.90S
GLENDALE       SUNNY     77  28  16 CALM      29.91S
LUKE AFB       SUNNY     76  30  18 CALM      29.89S
DEER VALLEY    SUNNY     79  22  12 E6        29.90S
SCOTTSDALE     SUNNY     77  26  15 VRB3      29.92R
MESA-FALCON    SUNNY    N/A N/A N/A N8        29.91S
MESA-GATEWAY   SUNNY     77  27  15 S8        29.91S
CHANDLER       SUNNY     77  28  16 VRB5      29.90S
$$

AZZ539-553-221700-
SOUTHWEST MARICOPA COUNTY AND PINAL COUNTY

CITY           SKY/WX    TMP DP  RH WIND       PRES   REMARKS
CASA GRANDE    SUNNY     74  22  14 SE3       29.92S
GILA BEND      FAIR      77  16  10 N3        29.87S
$$

AZZ503-504-507>509-221700-
SOUTHEAST ARIZONA

CITY           SKY/WX    TMP DP  RH WIND       PRES   REMARKS
TUCSON         SUNNY     76  15  10 S7        29.98S
DAVIS-MONTHAN  SUNNY     76  17  10 E3        29.97S
RYAN FIELD     SUNNY     72  23  16 SE3       29.97S
NOGALES        SUNNY     73  13  10 CALM      30.03S
SIERRA VISTA   SUNNY     72  12  10 CALM      30.08S
DOUGLAS        SUNNY     73  11   9 CALM      30.05F
SAFFORD        SUNNY     72  17  12 CALM      29.99S
$$

AZZ532-221700-
SOUTHWEST ARIZONA

CITY           SKY/WX    TMP DP  RH WIND       PRES   REMARKS
YUMA           SUNNY     83  24  11 N14       29.86S
$$

CAZ041-043-047-048-061-525>527-560>570-221700-
SOUTHERN CALIFORNIA

CITY           SKY/WX    TMP DP  RH WIND       PRES   REMARKS
DOWNTOWN L.A.  SUNNY     74  50  42 CALM      29.89S
L.A. AIRPORT   PTSUNNY   71  56  58 SE3       29.90R
SAN DIEGO      MOSUNNY   69  55  60 W3        29.90F
BURBANK        SUNNY     72  41  32 CALM      29.91R
ONTARIO        MOSUNNY   76  33  21 NE3       29.91S
RIVERSIDE      PTSUNNY   72  42  34 CALM      29.91F
PALM SPRINGS   SUNNY     84  29  13 CALM      29.91S
EL CENTRO NAS  SUNNY     82  27  13 W8        29.88S
IMPERIAL       SUNNY     80  40  23 NW7       29.86S
BLYTHE         SUNNY     82  23  11 N16       29.90F
NEEDLES        SUNNY     78  24  13 N15       29.97S
$$

NVZ020-UTZ003-221700-
SOUTHERN NEVADA-UTAH

CITY           SKY/WX    TMP DP  RH WIND       PRES   REMARKS
LAS VEGAS      MOSUNNY   68  20  16 NE12      30.07S
SALT LAKE CITY MOSUNNY   50  27  40 S13       30.24F
$$

NMZ009-TXZ055-221700-
NEW MEXICO-WEST TEXAS

CITY           SKY/WX    TMP DP  RH WIND       PRES   REMARKS
ALBUQUERQUE    MOSUNNY   54  33  45 E17       30.20S
EL PASO        SUNNY     63  37  38 E12       30.11S
$$


........................KEY........................
SKY/WX - SKY CONDITION/WEATHER
TMP    - TEMPERATURE IN FAHRENHEIT
DP     - DEW POINT IN FAHRENHEIT
RH     - RELATIVE HUMIDITY IN PERCENT
WIND   - DIRECTION AND SPEED IN MILES PER HOUR (MPH)
VRB    - VARIABLE WIND DIRECTION
PRES   - MEAN SEA LEVEL PRESSURE IN INCHES OF MERCURY
         F - FALLING PRESSURE   R - RISING PRESSURE
         S - STEADY PRESSURE
VSB    - VISIBILITY IN MILES
HX     - HEAT INDEX IN FAHRENHEIT
WCI    - WIND CHILL INDEX IN FAHRENHEIT
TC     - TEMPERATURE IN CELSIUS WHICH IS ALSO KNOWN AS
         TEMPERATURE IN CENTIGRADE
AFB    - AIR FORCE BASE
         LUKE AFB IS LUKE AIR FORCE BASE
         DAVIS-MONTHAN IS DAVIS-MONTHAN AIR FORCE BASE
NAS    - NAVAL AIR STATION
         EL CENTRO NAS IS EL CENTRO NAVAL AIR STATION
N/A    - NOT AVAILABLE





USA.gov is the U.S. government's official web portal to all federal, state and local government web resources and services.